Location: PSU-Greenbush Astrophysical Observatory
(37.5140°N, 94.9880°W)
Time: 18:57:39
(UTC-06:00)

Transit 2A - Pass Details

Date: 01 February 2020
Orbit: 600 x 959 km, 66.7° (Epoch: 20 February)

Event Time Altitude Azimuth Distance (km) Brightness Sun altitude
Rises 03:17:20 0° 336° (NNW) 3,035 - -48.8°
Reaches altitude 10° 03:19:36 10° 341° (NNW) 2,165 - -48.4°
Maximum altitude 03:24:27 57° 60° (ENE) 881 - -47.4°
Drops below altitude 10° 03:29:49 10° 139° (SE) 2,388 - -46.4°
Sets 03:32:25 0° 143° (SE) 3,376 - -45.9°
